sat.trackr.live / text

‹ back to catalog

STARLINK-36447

NORAD 67425 · 2026-005X

PAYLOAD ACTIVE UNKNOWN

§ Identity

Operator
Country
US
Launch date
2026-01-12
Launch site
AFETR
Launch vehicle
Mass (kg)
RCS (m²)

Purposes: comms

External: N2YO · Heavens-Above · Gunter

§ Orbital elements

Epoch: 2026-05-25T00:53:32.383104Z

Period
94.27 min
Inclination
43.0008°
Eccentricity
0.0001405
Mean motion
15.27591656 rev/d
Perigee alt
482.1 km
Apogee alt
484.0 km
Semi-major
6,861.2 km
B*
4.5737e-4
RAAN
166.7453°
Arg perigee
272.5129°
Mean anomaly
87.5561°
Rev number
2,037

§ Raw data

STARLINK-364471 67425U 26005X   26145.03718036  .00012349  00000+0  45737-3 0  99902 67425  43.0008 166.7453 0001405 272.5129  87.5561 15.27591656 20372

JSON: /api/v1/satellites/67425 · /tle

For live sub-satellite position, see the globe view (requires WebGL).

§ Visibility from observer

Set your observer location to see the next 7 days of passes ≥ 10°. The values pass through the URL so the page stays shareable.

No JS? Fill the form by hand. The geolocation button needs JavaScript.